TimePST,TemperatureF,Dew PointF,Humidity,Sea Level PressureIn,VisibilityMPH,Wind Direction,Wind SpeedMPH,Gust SpeedMPH,PrecipitationIn,Events,Conditions,WindDirDegrees,DateUTC
12:56 AM,42.1,37.9,85,30.20,10.0,Calm,Calm,-,N/A,,Clear,0,2012-12-28 08:56:00
1:56 AM,42.1,37.0,82,30.21,10.0,Calm,Calm,-,N/A,,Clear,0,2012-12-28 09:56:00
2:56 AM,39.9,37.0,89,30.20,10.0,SE,3.5,-,N/A,,Clear,140,2012-12-28 10:56:00
3:56 AM,39.9,36.0,86,30.19,10.0,SE,3.5,-,N/A,,Clear,140,2012-12-28 11:56:00
4:56 AM,39.0,35.1,86,30.18,10.0,Calm,Calm,-,N/A,,Clear,0,2012-12-28 12:56:00
5:56 AM,37.9,35.1,89,30.18,10.0,ESE,3.5,-,N/A,,Clear,110,2012-12-28 13:56:00
6:56 AM,37.9,35.1,89,30.19,10.0,Calm,Calm,-,N/A,,Clear,0,2012-12-28 14:56:00
7:56 AM,39.9,37.0,89,30.19,10.0,Calm,Calm,-,N/A,,Clear,0,2012-12-28 15:56:00
8:56 AM,41.0,37.9,89,30.19,10.0,Calm,Calm,-,N/A,,Overcast,0,2012-12-28 16:56:00
9:56 AM,43.0,37.9,82,30.20,10.0,Calm,Calm,-,N/A,,Overcast,0,2012-12-28 17:56:00
10:56 AM,45.0,37.9,76,30.18,10.0,Calm,Calm,-,N/A,,Overcast,0,2012-12-28 18:56:00
11:56 AM,48.0,37.9,68,30.14,10.0,Calm,Calm,-,N/A,,Overcast,0,2012-12-28 19:56:00
12:56 PM,50.0,39.0,66,30.12,10.0,North,5.8,-,N/A,,Overcast,350,2012-12-28 20:56:00
1:56 PM,50.0,39.0,66,30.11,10.0,NNE,3.5,-,N/A,,Overcast,20,2012-12-28 21:56:00
2:56 PM,51.1,37.9,61,30.10,10.0,North,3.5,-,N/A,,Overcast,10,2012-12-28 22:56:00
3:56 PM,51.1,39.0,63,30.09,10.0,North,3.5,-,N/A,,Overcast,10,2012-12-28 23:56:00
4:56 PM,50.0,37.0,61,30.08,10.0,ESE,3.5,-,N/A,,Mostly Cloudy,120,2012-12-29 00:56:00
5:56 PM,48.9,37.0,64,30.07,10.0,SE,4.6,-,N/A,,Overcast,130,2012-12-29 01:56:00
6:56 PM,48.0,37.9,68,30.06,10.0,ESE,6.9,-,N/A,,Overcast,120,2012-12-29 02:56:00
7:56 PM,48.0,39.0,71,30.06,10.0,ESE,6.9,-,N/A,,Scattered Clouds,120,2012-12-29 03:56:00
8:56 PM,48.0,37.9,68,30.05,10.0,ESE,5.8,-,N/A,,Overcast,120,2012-12-29 04:56:00
9:56 PM,46.9,37.9,71,30.05,10.0,Calm,Calm,-,N/A,,Mostly Cloudy,0,2012-12-29 05:56:00
10:56 PM,46.9,43.0,86,30.06,8.0,Calm,Calm,-,0.00,Rain,Light Rain,0,2012-12-29 06:56:00
11:56 PM,46.0,43.0,89,30.06,6.0,West,3.5,-,0.02,Rain,Light Rain,260,2012-12-29 07:56:00